DT_LEITURA;HR_LEITURA;MED-PressaoAtm[hPa];VAL-TempExt[oC];VAL-UmidExt[%UR];VAL-TempInt[oC];VAL-UmidInt[%UR];Dir-Vento[grau];Vel-Vento[m/s];Precipitação[mm/h]
24/08/2026;21:00:00;1011,7;-31,4;0;29,9;70;144;0,9;0,0
24/08/2026;21:05:00;1011,8;-31,7;0;29,9;69;141;1,0;0,0
24/08/2026;21:10:00;1011,8;-31,8;0;29,8;69;132;1,0;0,0
24/08/2026;21:15:00;1011,9;-31,9;0;29,8;69;139;1,0;0,0
24/08/2026;21:20:00;1012,0;-32,1;0;29,7;70;138;0,9;0,0
24/08/2026;21:25:00;1012,1;-32,2;0;29,7;70;129;1,0;0,0
24/08/2026;21:30:00;1012,2;-32,3;0;29,6;70;144;0,9;0,0
24/08/2026;21:35:00;1012,2;-32,5;0;29,6;70;135;1,0;0,0
24/08/2026;21:40:00;1012,3;-32,6;0;29,6;70;153;1,0;0,0
24/08/2026;21:45:00;1012,3;-32,7;0;29,5;70;126;1,3;0,0
24/08/2026;21:50:00;1012,3;-32,9;0;29,5;70;121;1,3;0,0
24/08/2026;21:55:00;1012,3;-33,0;0;29,4;71;145;1,1;0,0
24/08/2026;22:00:00;1012,3;-33,1;0;29,4;71;137;0,9;0,0
24/08/2026;22:05:00;1012,3;-33,3;0;29,4;71;148;0,9;0,0
24/08/2026;22:10:00;1012,4;-33,4;0;29,3;72;134;1,0;0,0
24/08/2026;22:15:00;1012,4;-33,4;0;29,3;72;133;1,0;0,0
24/08/2026;22:20:00;1012,4;-33,6;0;29,2;72;136;0,9;0,0
24/08/2026;22:25:00;1012,4;-33,7;0;29,2;72;151;0,8;0,0
24/08/2026;22:30:00;1012,3;-33,8;0;29,2;72;134;0,9;0,0
24/08/2026;22:35:00;1012,4;-33,9;0;29,1;73;144;0,9;0,0
24/08/2026;22:40:00;1012,3;-34,0;0;29,1;73;164;0,6;0,0
24/08/2026;22:45:00;1012,3;-34,1;0;29,1;73;162;0,7;0,0
24/08/2026;22:50:00;1012,3;-34,1;0;29,0;73;172;0,5;0,0
24/08/2026;22:55:00;1012,4;-34,2;0;29,0;73;155;0,6;0,0
24/08/2026;23:00:00;1012,5;-34,3;0;29,0;74;134;0,9;0,0
24/08/2026;23:05:00;1012,4;-34,3;0;29,0;74;126;1,0;0,0
24/08/2026;23:10:00;1012,4;-34,4;0;28,9;74;149;0,6;0,0
24/08/2026;23:15:00;1012,4;-34,4;0;28,9;74;155;0,7;0,0
24/08/2026;23:20:00;1012,5;-34,5;0;28,9;74;167;0,7;0,0
24/08/2026;23:25:00;1012,5;-34,6;0;28,9;74;157;0,6;0,0
24/08/2026;23:30:00;1012,5;-34,7;0;28,9;74;168;0,5;0,0
24/08/2026;23:35:00;1012,5;-34,7;0;28,9;75;155;0,7;0,0
24/08/2026;23:40:00;1012,5;-34,8;0;28,8;74;151;0,8;0,0
24/08/2026;23:45:00;1012,5;-34,8;0;28,8;74;149;0,8;0,0
24/08/2026;23:50:00;1012,5;-34,8;0;28,8;74;181;0,5;0,0
24/08/2026;23:55:00;1012,5;-34,8;0;28,8;74;184;0,4;0,0
